BANGABANDHUSAT-1

Last updated on Sun Oct 26 2025 00:02:58 GMT+0000 (Coordinated Universal Time)

1 43463U 18044A 25298.51984956 -.00000350 00000+0 00000+0 0 9997 2 43463 0.0128 191.9417 0002308 22.3249 126.1638 1.00272349 27352
UTC large
Height (km)
Speed (km/s)
/
Latitude / Longitude
Inclination (degrees)
Orbital Period (minutes)
Azimuth
Elevation
Range (km)
Doppler Factor

Next 0 passes for location: London (51.5072 / 0.1276)

Sorry there are no passes over London.